QPF
0.00 0.00 0.00 0.00 0.00 0.00 0.00 0.00 0.00 0.00 0.00 0.00 0.00 0.00 0.00 0.00 0.00 0.00 0.00 0.00 0.00 0.00 0.00 0.00 0.01 0.00 0.00 0.00 0.00 0.00 0.00 0.00 0.00 0.00 0.00 0.00 0.00 0.00 0.00 0.00 0.00 0.00 0.00 0.00 0.00 0.00 0.00
0.00 0.00 0.00 0.00 0.00 0.00 0.00 0.00 0.00 0.00 0.00 0.00 0.00 0.00 0.00 0.00 0.00 0.00 0.00 0.00 0.00 0.00 0.00 0.00 0.01 0.00 0.00 0.00 0.00 0.00 0.00 0.00 0.00 0.00 0.00 0.00 0.00 0.00 0.00 0.00 0.00 0.00 0.00 0.00 0.01 0.00 0.00
0.00 0.00 0.00 0.00 0.00 0.00 0.00 0.00 0.00 0.00 0.00 0.00 0.00 0.00 0.00 0.00 0.00 0.00 0.00 0.00 0.00 0.00 0.00 0.00 0.01 0.00 0.00 0.00 0.00 0.00 0.00 0.00 0.00 0.00 0.00 0.00 0.00 0.00 0.00 0.00 0.00 0.00 0.00 0.00 0.01 0.00 0.00
0.00 0.00 0.00 0.00 0.00 0.00 0.00 0.00 0.00 0.00 0.00 0.00 0.00 0.00 0.00 0.00 0.00 0.00 0.00 0.00 0.00 0.00 0.00 0.00 0.00 0.00 0.00 0.00 0.00 0.00 0.00 0.00 0.00 0.00 0.00 0.00 0.00 0.00 0.00 0.00 0.00 0.00 0.00 0.00 0.00 0.00 0.00
0.00 0.00 0.00 0.00 0.00 0.00 0.00 0.00 0.00 0.00 0.00 0.00 0.00 0.00 0.00 0.00 0.00 0.00 0.00 0.00 0.00 0.00 0.00 0.00 0.00 0.00 0.00 0.00 0.00 0.00 0.00 0.00 0.00 0.00 0.00 0.00 0.00 0.00 0.00 0.00 0.00 0.00 0.00 0.00 0.00 0.00 0.00
0.00 0.00 0.00 0.00 0.00 0.00 0.00 0.00 0.00 0.00 0.00 0.00 0.00 0.00 0.00 0.00 0.00 0.00 0.00 0.00 0.00 0.00 0.00 0.00 0.00 0.00 0.00 0.00 0.00 0.00 0.00 0.00 0.00 0.00 0.00 0.00 0.00 0.00 0.00 0.00 0.00 0.00 0.00 0.00 0.00 0.00 0.00
0.00 0.00 0.00 0.00 0.00 0.00 0.00 0.00 0.00 0.00 0.00 0.00 0.00 0.00 0.00 0.00 0.00 0.00 0.00 0.00 0.00 0.00 0.00 0.00 0.00 0.00 0.00 0.00 0.00 0.00 0.00 0.00 0.00 0.00 0.00 0.00 0.00 0.00 0.00 0.00 0.00 0.00 0.00 0.00 0.00 0.00 0.00
0.00 0.00 0.00 0.00 0.00 0.00 0.00 0.00 0.00 0.00 0.00 0.00 0.00 0.00 0.00 0.00 0.00 0.00 0.00 0.00 0.00 0.00 0.00 0.00 0.00 0.00 0.00 0.00 0.00 0.00 0.00 0.00 0.00 0.00 0.00 0.00 0.00 0.00 0.00 0.00 0.00 0.00 0.00 0.00 0.00 0.00 0.00
0.00 0.00 0.00 0.00 0.00 0.00 0.00 0.00 0.00 0.00 0.00 0.00 0.00 0.00 0.00 0.00 0.00 0.00 0.00 0.00 0.00 0.00 0.00 0.00 0.00 0.00 0.00 0.00 0.00 0.00 0.00 0.00 0.00 0.00 0.00 0.00 0.00 0.00 0.00 0.00 0.00 0.00 0.00 0.00 0.00 0.00 0.00
0.00 0.00 0.00 0.00 0.00 0.00 0.00 0.00 0.00 0.00 0.00 0.00 0.00 0.00 0.00 0.00 0.00 0.00 0.00 0.00 0.00 0.00 0.00 0.00 0.00 0.00 0.00 0.00 0.00 0.00 0.00 0.00 0.00 0.00 0.00 0.00 0.00 0.00 0.00 0.00 0.00 0.00 0.00 0.00 0.00 0.00 0.00
0.00 0.00 0.00 0.00 0.00 0.00 0.00 0.00 0.00 0.00 0.00 0.00 0.00 0.00 0.00 0.00 0.00 0.00 0.00 0.00 0.00 0.00 0.00 0.00 0.00 0.00 0.00 0.00 0.00 0.00 0.00 0.00 0.00 0.00 0.00 0.00 0.00 0.00 0.00 0.00 0.00 0.00 0.00 0.00 0.00 0.00 0.00
0.00 0.00 0.00 0.00 0.00 0.00 0.00 0.00 0.00 0.00 0.00 0.00 0.00 0.00 0.00 0.00 0.00 0.00 0.00 0.00 0.00 0.00 0.00 0.00 0.00 0.00 0.00 0.00 0.00 0.00 0.00 0.00 0.00 0.00 0.00 0.00 0.00 0.00 0.00 0.00 0.00 0.00 0.00 0.00 0.00 0.00 0.00
0.00 0.00 0.00 0.00 0.00 0.00 0.00 0.00 0.00 0.00 0.00 0.00 0.00 0.00 0.00 0.00 0.00 0.00 0.00 0.00 0.00 0.00 0.00 0.00 0.00 0.00 0.00 0.00 0.00 0.00 0.00 0.00 0.00 0.00 0.00 0.00 0.00 0.00 0.00 0.00 0.00 0.00 0.00 0.00 0.00 0.00 0.00
0.00 0.00 0.00 0.00 0.00 0.00 0.00 0.00 0.00 0.00 0.00 0.00 0.00 0.00 0.00 0.00 0.00 0.00 0.00 0.00 0.00 0.00 0.00 0.00 0.00 0.00 0.00 0.00 0.00 0.00 0.00 0.00 0.00 0.00 0.00 0.00 0.00 0.00 0.00 0.00 0.00 0.00 0.00 0.00 0.00 0.00 0.00
0.00 0.00 0.00 0.00 0.00 0.00 0.00 0.00 0.00 0.00 0.00 0.00 0.00 0.00 0.00 0.00 0.00 0.00 0.00 0.00 0.00 0.00 0.00 0.00 0.00 0.00 0.00 0.00 0.00 0.00 0.00 0.00 0.00 0.00 0.00 0.00 0.00 0.00 0.00 0.00 0.00 0.00 0.00 0.00 0.00 0.00 0.00
0.00 0.00 0.00 0.00 0.00 0.00 0.00 0.00 0.00 0.00 0.00 0.00 0.00 0.00 0.00 0.00 0.00 0.00 0.00 0.00 0.00 0.00 0.00 0.00 0.00 0.00 0.00 0.00 0.00 0.00 0.00 0.00 0.00 0.00 0.00 0.00 0.00 0.00 0.00 0.00 0.00 0.00 0.00 0.00 0.00 0.00 0.00
0.00 0.00 0.00 0.00 0.00 0.00 0.00 0.00 0.00 0.00 0.00 0.00 0.00 0.00 0.00 0.00 0.00 0.00 0.00 0.00 0.00 0.00 0.00 0.00 0.00 0.00 0.00 0.00 0.00 0.00 0.00 0.00 0.00 0.00 0.00 0.00 0.00 0.00 0.00 0.00 0.00 0.00 0.00 0.00 0.00 0.00 0.00
0.00 0.00 0.00 0.00 0.00 0.00 0.00 0.00 0.00 0.00 0.00 0.00 0.00 0.00 0.00 0.00 0.00 0.00 0.00 0.00 0.00 0.00 0.00 0.00 0.00 0.00 0.00 0.00 0.00 0.00 0.00 0.01 0.00 0.00 0.00 0.00 0.00 0.00 0.00 0.00 0.00 0.00 0.00 0.00 0.00 0.00 0.00
0.00 0.00 0.00 0.00 0.00 0.00 0.00 0.00 0.00 0.00 0.00 0.00 0.00 0.00 0.00 0.00 0.00 0.00 0.00 0.00 0.00 0.00 0.00 0.00 0.00 0.00 0.00 0.00 0.00 0.00 0.00 0.00 0.01 0.01 0.02 0.06 0.02 0.00 0.00 0.00 0.00 0.00 0.00 0.00 0.00 0.00 0.00
0.00 0.00 0.00 0.00 0.00 0.00 0.00 0.00 0.00 0.00 0.00 0.00 0.00 0.00 0.00 0.00 0.00 0.00 0.00 0.00 0.00 0.00 0.00 0.00 0.00 0.00 0.00 0.00 0.00 0.00 0.00 0.00 0.00 0.03 0.08 0.10 0.01 0.00 0.00 0.00 0.00 0.00 0.00 0.00 0.00 0.00 0.00
0.00 0.00 0.00 0.00 0.00 0.00 0.00 0.00 0.00 0.00 0.00 0.00 0.00 0.00 0.00 0.00 0.00 0.00 0.00 0.00 0.00 0.00 0.00 0.00 0.00 0.00 0.00 0.00 0.00 0.00 0.00 0.00 0.00 0.01 0.07 0.05 0.00 0.00 0.00 0.00 0.00 0.00 0.00 0.00 0.00 0.00 0.00
0.00 0.00 0.00 0.00 0.00 0.00 0.00 0.00 0.00 0.00 0.00 0.00 0.00 0.00 0.00 0.00 0.00 0.00 0.00 0.00 0.00 0.00 0.00 0.00 0.00 0.01 0.00 0.00 0.01 0.01 0.00 0.00 0.01 0.02 0.08 0.03 0.01 0.00 0.00 0.00 0.00 0.00 0.00 0.00 0.00 0.00 0.00
0.00 0.00 0.00 0.00 0.00 0.00 0.00 0.00 0.01 0.01 0.00 0.00 0.00 0.00 0.00 0.00 0.00 0.01 0.00 0.00 0.01 0.01 0.01 0.01 0.01 0.02 0.00 0.00 0.01 0.00 0.00 0.00 0.00 0.01 0.03 0.01 0.00 0.00 0.00 0.00 0.00 0.00 0.00 0.00 0.00 0.00 0.00
0.00 0.00 0.00 0.00 0.00 0.00 0.00 0.00 0.01 0.01 0.01 0.01 0.00 0.01 0.03 0.01 0.01 0.04 0.01 0.00 0.01 0.02 0.02 0.00 0.03 0.06 0.03 0.01 0.00 0.00 0.00 0.00 0.00 0.00 0.00 0.01 0.00 0.00 0.00 0.00 0.00 0.00 0.00 0.00 0.00 0.00 0.00
0.00 0.00 0.00 0.00 0.00 0.00 0.01 0.01 0.01 0.01 0.01 0.01 0.00 0.04 0.07 0.03 0.01 0.02 0.01 0.04 0.04 0.01 0.01 0.01 0.02 0.04 0.02 0.00 0.00 0.00 0.00 0.01 0.01 0.01 0.00 0.00 0.00 0.00 0.00 0.00 0.00 0.00 0.00 0.00 0.00 0.00 0.00
0.00 0.00 0.00 0.00 0.00 0.01 0.01 0.01 0.01 0.01 0.01 0.02 0.00 0.02 0.07 0.05 0.02 0.06 0.06 0.06 0.05 0.01 0.00 0.00 0.00 0.00 0.00 0.00 0.00 0.00 0.01 0.04 0.03 0.01 0.00 0.00 0.01 0.00 0.00 0.00 0.00 0.00 0.00 0.00 0.00 0.00 0.00
0.00 0.00 0.00 0.00 0.00 0.01 0.01 0.01 0.01 0.01 0.01 0.03 0.01 0.01 0.06 0.04 0.01 0.03 0.08 0.11 0.11 0.07 0.01 0.00 0.00 0.00 0.00 0.05 0.12 0.06 0.13 0.04 0.06 0.04 0.01 0.02 0.01 0.00 0.00 0.00 0.03 0.00 0.00 0.00 0.00 0.00 0.00
0.00 0.00 0.01 0.01 0.01 0.01 0.01 0.01 0.01 0.01 0.02 0.04 0.00 0.00 0.06 0.03 0.00 0.00 0.04 0.10 0.09 0.05 0.02 0.02 0.05 0.00 0.00 0.01 0.05 0.06 0.20 0.06 0.06 0.08 0.03 0.03 0.03 0.02 0.00 0.01 0.10 0.01 0.02 0.01 0.00 0.00 0.00
0.00 0.01 0.01 0.01 0.01 0.01 0.01 0.01 0.01 0.02 0.02 0.03 0.00 0.00 0.02 0.03 0.00 0.00 0.03 0.04 0.06 0.01 0.02 0.02 0.07 0.01 0.01 0.00 0.00 0.01 0.09 0.05 0.02 0.01 0.01 0.02 0.05 0.04 0.03 0.03 0.02 0.01 0.05 0.01 0.00 0.00 0.00
MSLP
1025.08 1024.69 1024.32 1023.96 1023.56 1023.13 1022.63 1022.03 1021.38 1020.74 1020.08 1019.37 1018.64 1017.87 1017.06 1016.20 1015.45 1014.85 1014.22 1013.73 1013.26 1012.74 1012.43 1012.31 1012.05 1012.04 1012.14 1011.16 1006.94 1003.29 1003.21 1004.13 1005.53 1006.40 1006.71 1007.04 1007.57 1007.84 1007.69 1007.22 1007.22 1006.69 1005.82 1005.45 1005.18 1004.84 1004.72
1025.49 1025.09 1024.65 1024.20 1023.74 1023.23 1022.69 1022.08 1021.40 1020.73 1020.03 1019.26 1018.46 1017.61 1016.76 1015.93 1015.04 1014.35 1013.66 1013.06 1012.53 1012.05 1011.80 1011.76 1011.62 1012.01 1011.92 1009.62 1003.97 1003.32 1003.72 1004.54 1004.68 1005.68 1006.31 1006.60 1006.44 1006.73 1006.92 1006.47 1006.49 1005.12 1005.27 1004.85 1004.12 1003.80 1003.79
1025.77 1025.33 1024.84 1024.33 1023.82 1023.28 1022.70 1022.12 1021.47 1020.76 1020.02 1019.25 1018.49 1017.67 1016.71 1015.74 1014.84 1014.01 1013.08 1012.23 1011.68 1011.00 1010.72 1011.10 1011.16 1011.54 1011.14 1006.25 1003.39 1003.50 1003.69 1004.06 1004.09 1004.52 1005.43 1005.66 1005.80 1006.41 1006.04 1006.12 1005.06 1004.97 1005.13 1004.31 1003.57 1002.90 1004.22
1025.98 1025.50 1024.99 1024.46 1023.92 1023.39 1022.82 1022.17 1021.45 1020.71 1019.92 1019.13 1018.31 1017.51 1016.61 1015.57 1014.62 1013.79 1012.78 1011.57 1010.91 1010.31 1010.13 1010.63 1010.69 1011.03 1009.25 1004.38 1003.95 1003.90 1003.77 1003.92 1004.20 1004.11 1004.36 1004.94 1005.57 1006.21 1006.09 1005.51 1004.92 1004.92 1004.72 1004.47 1003.42 1003.03 1003.00
1026.21 1025.75 1025.21 1024.64 1024.11 1023.57 1022.97 1022.33 1021.64 1020.87 1020.05 1019.20 1018.39 1017.38 1016.52 1015.43 1014.21 1013.61 1012.44 1011.19 1010.44 1010.20 1010.20 1010.46 1010.78 1010.58 1006.94 1003.76 1003.80 1002.70 1003.08 1003.24 1003.92 1004.47 1004.74 1004.97 1005.95 1006.15 1006.11 1006.16 1005.90 1004.93 1004.52 1003.82 1003.10 1002.56 1002.40
1026.38 1025.88 1025.35 1024.82 1024.24 1023.61 1022.89 1022.18 1021.51 1020.78 1019.99 1019.14 1018.31 1017.46 1016.43 1015.38 1014.36 1013.56 1012.24 1010.58 1009.85 1010.15 1010.26 1010.43 1010.05 1010.00 1005.72 1003.69 1003.14 1002.64 1002.24 1002.71 1003.66 1004.34 1005.20 1005.27 1005.68 1005.79 1005.82 1005.82 1005.02 1004.88 1004.50 1003.47 1002.59 1001.85 1001.97
1026.51 1025.98 1025.45 1024.89 1024.25 1023.58 1022.87 1022.14 1021.44 1020.69 1019.90 1019.10 1018.18 1017.31 1016.29 1015.05 1013.99 1013.14 1012.38 1011.03 1010.58 1010.48 1009.72 1009.89 1008.50 1007.87 1005.45 1004.58 1003.55 1002.02 1002.08 1002.40 1003.15 1003.78 1004.34 1004.52 1005.18 1004.44 1003.82 1004.61 1004.67 1004.46 1004.01 1003.36 1001.75 1001.19 1001.74
1026.57 1026.04 1025.54 1024.98 1024.37 1023.70 1022.98 1022.22 1021.49 1020.75 1019.97 1019.10 1018.22 1017.17 1016.22 1014.86 1013.63 1012.90 1012.77 1012.46 1012.16 1011.93 1009.27 1007.28 1006.66 1006.54 1005.84 1005.41 1004.82 1002.42 1001.94 1001.96 1002.61 1002.85 1003.55 1004.14 1003.24 1003.00 1003.79 1003.93 1004.19 1003.92 1003.67 1002.91 1001.97 1000.92 1001.50
1026.75 1026.32 1025.70 1025.09 1024.47 1023.83 1023.12 1022.38 1021.56 1020.64 1019.73 1018.87 1017.93 1016.90 1015.96 1014.82 1013.29 1012.52 1012.76 1011.72 1010.96 1010.91 1010.57 1007.10 1005.99 1005.48 1004.59 1004.35 1004.35 1002.67 1002.91 1001.93 1001.80 1002.40 1002.56 1002.39 1001.48 1002.64 1002.86 1002.92 1003.07 1002.92 1002.88 1002.47 1002.26 1001.23 1001.39
1026.89 1026.38 1025.80 1025.20 1024.61 1024.04 1023.25 1022.47 1021.56 1020.38 1019.46 1018.41 1017.47 1016.60 1015.67 1014.75 1013.14 1013.53 1012.33 1010.85 1010.55 1010.71 1010.72 1007.40 1005.82 1004.79 1004.32 1004.03 1003.86 1002.40 1002.47 1002.76 1001.80 1001.57 1002.20 1001.73 1001.49 1001.31 1001.69 1001.65 1001.84 1001.95 1001.74 1002.13 1002.25 1002.50 1002.34
1026.82 1026.29 1025.73 1025.13 1024.55 1023.91 1023.08 1022.38 1021.38 1020.30 1019.28 1018.13 1017.18 1016.25 1015.21 1015.00 1014.85 1013.74 1011.48 1010.75 1010.36 1010.69 1009.96 1007.00 1006.51 1005.43 1005.31 1005.35 1005.04 1002.93 1003.13 1002.02 1001.60 1001.35 1001.20 999.72 1000.15 1000.43 1000.44 999.92 1000.62 1000.59 1001.57 1002.02 1002.09 1002.83 1002.99
1026.76 1026.28 1025.73 1025.12 1024.51 1023.81 1023.14 1022.31 1021.28 1020.30 1019.22 1017.76 1016.75 1015.82 1015.26 1014.59 1014.53 1012.13 1011.32 1010.68 1010.54 1011.48 1009.33 1007.72 1007.53 1006.83 1005.82 1006.08 1005.69 1004.92 1004.23 1003.07 1001.10 1001.71 1000.83 1000.06 999.61 999.33 998.98 999.47 1000.06 1000.66 1001.48 1001.92 1002.10 1002.88 1003.05
1026.82 1026.30 1025.76 1025.19 1024.55 1023.85 1023.13 1022.23 1021.34 1020.30 1019.20 1017.68 1016.25 1015.30 1014.65 1014.14 1013.11 1011.36 1011.71 1011.52 1011.90 1011.42 1009.52 1009.25 1008.81 1008.23 1007.99 1007.57 1006.71 1006.51 1006.25 1006.36 1006.21 1003.61 1001.70 1001.09 999.66 999.02 998.68 999.22 999.67 1000.44 1001.23 1002.69 1002.96 1002.95 1002.41
1026.82 1026.31 1025.76 1025.13 1024.59 1023.92 1023.21 1022.40 1021.36 1020.44 1019.25 1017.65 1016.00 1014.64 1013.86 1013.07 1011.94 1011.79 1012.69 1012.76 1012.75 1012.12 1011.17 1010.53 1010.20 1009.65 1009.55 1008.77 1008.29 1007.91 1007.58 1008.00 1008.00 1006.79 1004.98 1002.12 1000.14 998.24 997.58 997.83 998.63 999.48 1000.53 1001.83 1002.63 1002.98 1002.51
1026.65 1026.15 1025.70 1025.15 1024.53 1023.94 1023.30 1022.55 1021.52 1020.57 1019.24 1017.87 1016.12 1014.49 1013.83 1012.11 1011.57 1012.29 1013.50 1013.92 1013.23 1012.34 1011.95 1011.54 1010.82 1010.86 1010.94 1010.39 1010.23 1009.67 1009.57 1009.35 1010.22 1010.47 1010.21 1006.56 1000.52 998.23 997.31 996.95 997.35 998.20 998.82 1000.55 1002.09 1002.69 1002.47
1026.61 1026.11 1025.60 1025.11 1024.52 1023.88 1023.30 1022.61 1021.86 1020.68 1019.58 1018.18 1017.49 1015.94 1014.12 1012.21 1011.41 1012.39 1013.83 1013.95 1013.15 1012.30 1011.93 1012.05 1012.47 1012.37 1012.15 1011.63 1011.35 1011.18 1010.41 1010.21 1010.83 1011.50 1011.95 1009.81 1005.39 998.64 997.03 996.74 996.59 996.28 998.18 999.83 1000.78 1002.07 1001.95
1026.43 1026.00 1025.55 1025.05 1024.46 1023.81 1023.18 1022.55 1021.98 1021.23 1019.98 1018.53 1017.95 1016.54 1013.34 1011.93 1011.44 1013.08 1014.49 1014.25 1013.18 1012.38 1012.12 1012.65 1013.04 1013.17 1012.88 1012.68 1012.18 1011.89 1011.51 1011.22 1011.44 1011.35 1012.14 1011.47 1008.42 1001.41 998.64 996.65 995.59 996.64 996.95 998.20 999.78 1000.89 1001.25
1026.21 1025.81 1025.37 1024.93 1024.43 1023.82 1023.21 1022.65 1022.03 1021.41 1020.60 1019.36 1019.35 1017.61 1013.63 1012.64 1013.50 1014.64 1015.21 1014.58 1013.69 1012.93 1012.56 1012.71 1012.85 1013.11 1013.27 1013.24 1012.79 1012.49 1012.17 1012.08 1012.22 1012.73 1012.89 1012.49 1010.27 1006.29 1000.40 997.14 996.50 996.33 996.98 997.82 998.82 1000.01 1000.01
1026.01 1025.57 1025.19 1024.67 1024.18 1023.61 1023.05 1022.57 1022.22 1021.51 1021.21 1021.17 1020.55 1018.38 1014.80 1014.26 1016.31 1016.79 1016.04 1015.12 1014.21 1013.61 1013.14 1013.07 1013.27 1013.25 1013.36 1013.45 1013.48 1013.09 1012.83 1012.61 1012.89 1013.15 1014.34 1014.39 1011.78 1008.86 1002.24 999.14 997.37 996.76 996.34 996.51 997.19 997.94 998.59
1025.74 1025.20 1024.83 1024.46 1024.00 1023.56 1022.99 1022.47 1022.11 1021.62 1021.15 1021.11 1020.98 1019.86 1017.85 1017.43 1018.24 1018.44 1017.71 1015.97 1014.95 1013.87 1013.39 1013.34 1013.26 1013.36 1013.47 1013.62 1013.59 1013.45 1013.14 1012.85 1013.29 1014.05 1014.69 1015.55 1013.93 1010.97 1006.80 1002.93 1000.80 997.64 996.15 995.88 996.17 996.82 997.25
1025.37 1024.94 1024.55 1024.17 1023.68 1023.23 1022.84 1022.40 1021.95 1021.52 1021.05 1021.30 1021.13 1021.08 1020.57 1019.89 1019.11 1019.13 1018.52 1016.97 1015.63 1014.81 1014.44 1014.09 1013.86 1013.96 1014.08 1014.19 1013.92 1013.71 1013.29 1013.40 1013.60 1014.24 1014.93 1015.92 1013.88 1011.17 1007.65 1004.01 1001.15 998.63 996.53 995.12 995.19 995.18 995.71
1024.87 1024.45 1024.07 1023.66 1023.21 1022.85 1022.59 1022.19 1021.84 1021.35 1020.90 1021.24 1021.37 1021.29 1021.23 1020.60 1020.09 1019.55 1018.26 1017.28 1016.57 1015.91 1015.76 1014.98 1014.93 1014.69 1014.32 1014.29 1014.00 1013.79 1013.67 1013.43 1013.49 1014.30 1014.74 1015.38 1013.76 1011.22 1006.39 1001.71 999.62 997.78 995.79 994.87 994.53 994.60 995.07
1024.38 1023.96 1023.56 1023.08 1022.69 1022.36 1022.09 1021.87 1021.53 1021.31 1021.14 1021.33 1020.96 1021.16 1021.27 1020.62 1020.24 1019.90 1018.72 1018.08 1017.19 1016.42 1015.88 1015.35 1015.23 1014.87 1014.02 1013.55 1013.10 1012.69 1012.72 1012.52 1012.74 1013.05 1013.77 1014.35 1013.46 1011.48 1006.33 1001.87 999.00 997.90 997.44 995.31 994.30 994.64 995.30
1023.98 1023.58 1023.14 1022.61 1022.25 1021.85 1021.55 1021.29 1021.11 1020.89 1020.95 1021.22 1021.08 1021.09 1021.15 1020.47 1020.12 1019.58 1018.97 1018.35 1017.44 1016.82 1016.16 1015.31 1014.79 1014.58 1013.68 1012.92 1012.51 1011.83 1011.44 1011.08 1010.84 1011.06 1011.82 1012.29 1012.64 1010.81 1006.32 1002.67 1000.12 999.39 998.07 996.93 996.73 997.27 997.38
1023.44 1023.07 1022.66 1022.16 1021.70 1021.23 1020.96 1020.71 1020.50 1020.31 1020.38 1020.65 1020.53 1020.69 1020.69 1020.31 1019.79 1019.20 1018.60 1017.87 1017.42 1016.81 1016.17 1015.27 1014.40 1013.98 1013.22 1013.10 1012.69 1011.90 1010.92 1010.03 1009.54 1010.20 1010.52 1011.08 1011.20 1009.78 1006.95 1003.62 1000.23 999.18 999.53 999.46 999.46 1000.48 999.83
1022.98 1022.56 1022.11 1021.59 1021.02 1020.62 1020.38 1020.15 1019.90 1019.78 1019.66 1019.86 1019.67 1019.94 1020.28 1020.24 1019.32 1018.80 1018.24 1017.82 1017.35 1016.66 1016.01 1015.05 1014.26 1013.39 1013.10 1013.14 1012.68 1012.50 1011.39 1010.47 1009.56 1009.14 1009.38 1010.50 1010.19 1009.65 1007.09 1004.91 1003.49 1004.23 1001.27 998.81 998.90 1001.43 1001.70
1022.56 1022.05 1021.50 1020.99 1020.54 1020.13 1019.88 1019.68 1019.41 1019.21 1019.09 1019.22 1019.14 1019.32 1019.76 1019.77 1018.77 1018.48 1017.87 1017.68 1017.31 1016.85 1016.54 1015.91 1015.41 1014.29 1013.48 1013.82 1013.47 1012.98 1012.06 1011.27 1010.51 1010.27 1009.84 1010.48 1009.92 1008.72 1007.13 1005.82 1005.55 1005.11 1003.62 1000.74 1002.22 1005.12 1003.68
1022.03 1021.50 1020.99 1020.48 1020.06 1019.68 1019.46 1019.17 1018.93 1018.71 1018.55 1018.76 1018.68 1018.79 1019.18 1019.21 1018.40 1017.89 1017.57 1017.15 1016.72 1016.73 1016.42 1016.01 1015.80 1015.13 1014.58 1014.70 1014.47 1013.76 1012.57 1011.71 1011.22 1010.99 1010.86 1010.87 1010.15 1009.73 1008.48 1007.50 1008.17 1007.27 1006.08 1005.93 1007.19 1005.77 1004.76
1021.48 1020.96 1020.43 1020.01 1019.59 1019.31 1019.02 1018.74 1018.48 1018.26 1018.20 1018.31 1018.60 1018.41 1018.70 1019.06 1018.39 1017.73 1016.89 1016.55 1016.33 1016.15 1016.27 1016.00 1016.09 1015.80 1015.43 1015.65 1015.48 1014.70 1013.92 1013.34 1012.59 1011.89 1011.57 1011.93 1011.85 1011.56 1011.35 1009.89 1009.21 1008.54 1008.71 1007.61 1007.50 1006.94 1006.76
Thickness
5672 5674 5675 5677 5678 5680 5682 5686 5689 5693 5697 5701 5705 5710 5716 5722 5727 5731 5736 5740 5744 5747 5750 5752 5755 5756 5757 5759 5780 5831 5832 5825 5814 5805 5797 5791 5783 5781 5774 5787 5791 5790 5802 5810 5816 5820 5817
5665 5666 5668 5670 5673 5675 5678 5681 5684 5688 5691 5696 5701 5706 5711 5717 5723 5728 5733 5737 5742 5747 5750 5749 5751 5752 5753 5752 5817 5827 5824 5817 5815 5804 5795 5794 5792 5793 5785 5788 5789 5807 5803 5809 5820 5816 5821
5660 5661 5663 5666 5668 5671 5674 5676 5679 5683 5686 5690 5694 5698 5705 5711 5718 5723 5730 5737 5741 5748 5750 5747 5748 5749 5752 5774 5818 5821 5817 5813 5816 5810 5795 5799 5797 5786 5792 5783 5807 5803 5788 5804 5815 5823 5805
5655 5657 5659 5662 5664 5666 5668 5671 5674 5678 5682 5686 5690 5694 5699 5706 5713 5718 5725 5735 5740 5744 5746 5743 5743 5744 5756 5799 5809 5809 5808 5805 5809 5811 5804 5802 5796 5784 5782 5795 5793 5784 5785 5771 5808 5816 5822
5652 5653 5655 5658 5659 5661 5663 5666 5668 5672 5676 5680 5683 5688 5693 5699 5708 5711 5720 5729 5735 5737 5736 5734 5732 5734 5754 5800 5791 5809 5810 5799 5797 5796 5794 5796 5780 5772 5773 5761 5750 5768 5755 5771 5791 5818 5819
5648 5650 5651 5653 5654 5656 5659 5661 5663 5666 5669 5673 5676 5680 5685 5691 5697 5702 5711 5722 5728 5728 5724 5722 5728 5725 5762 5777 5788 5798 5810 5802 5787 5780 5770 5770 5762 5749 5755 5744 5737 5747 5757 5774 5782 5811 5817
5645 5646 5647 5648 5649 5651 5652 5654 5655 5658 5660 5663 5667 5670 5674 5681 5687 5694 5698 5707 5705 5705 5710 5705 5721 5732 5753 5761 5777 5784 5793 5787 5780 5769 5752 5761 5742 5745 5770 5767 5773 5770 5768 5771 5801 5821 5813
5641 5642 5642 5642 5643 5644 5645 5647 5648 5649 5651 5653 5655 5658 5660 5667 5673 5677 5674 5673 5673 5679 5690 5713 5723 5726 5733 5735 5736 5762 5778 5766 5762 5756 5757 5742 5746 5777 5772 5769 5766 5768 5762 5772 5797 5817 5809
5636 5635 5636 5636 5636 5636 5637 5637 5638 5639 5640 5641 5643 5644 5647 5650 5660 5660 5653 5658 5666 5667 5658 5690 5709 5712 5722 5731 5729 5746 5751 5758 5752 5747 5750 5745 5776 5773 5768 5764 5760 5762 5759 5772 5778 5806 5812
5629 5628 5628 5628 5627 5626 5625 5624 5624 5625 5626 5630 5631 5632 5635 5637 5646 5638 5639 5652 5653 5650 5620 5654 5681 5693 5705 5714 5712 5740 5742 5732 5741 5738 5742 5744 5770 5763 5758 5759 5767 5747 5787 5784 5785 5773 5752
5623 5622 5621 5619 5617 5614 5614 5613 5614 5616 5617 5619 5622 5624 5626 5625 5622 5628 5644 5648 5648 5638 5609 5657 5654 5680 5678 5672 5683 5708 5720 5719 5719 5730 5735 5753 5760 5755 5751 5772 5777 5773 5782 5777 5785 5765 5765
5617 5614 5612 5610 5607 5606 5605 5604 5605 5607 5608 5613 5616 5619 5619 5620 5618 5632 5636 5635 5628 5598 5597 5629 5636 5635 5647 5650 5656 5675 5683 5709 5732 5714 5734 5743 5768 5763 5769 5778 5775 5783 5769 5768 5774 5757 5725
5609 5607 5605 5603 5600 5598 5596 5596 5597 5598 5600 5606 5612 5617 5617 5615 5616 5627 5620 5610 5583 5574 5616 5604 5606 5614 5613 5620 5635 5640 5644 5643 5638 5668 5696 5714 5733 5757 5767 5751 5762 5761 5738 5708 5712 5714 5715
5603 5601 5598 5596 5592 5589 5587 5586 5588 5588 5592 5600 5609 5616 5615 5613 5619 5613 5597 5580 5568 5580 5579 5588 5588 5592 5589 5603 5610 5620 5620 5609 5621 5632 5654 5688 5694 5741 5765 5753 5748 5749 5739 5702 5691 5695 5732
5597 5595 5591 5587 5584 5580 5578 5578 5579 5579 5584 5592 5600 5608 5606 5611 5611 5600 5575 5547 5556 5563 5566 5560 5569 5563 5563 5576 5584 5597 5598 5596 5591 5591 5585 5620 5701 5750 5762 5772 5766 5749 5739 5756 5722 5731 5722
5590 5587 5583 5578 5575 5572 5570 5569 5569 5571 5574 5581 5581 5583 5591 5600 5601 5583 5555 5544 5547 5556 5557 5545 5528 5540 5535 5548 5559 5566 5583 5588 5581 5578 5580 5594 5626 5729 5757 5765 5769 5765 5767 5731 5716 5704 5704
5583 5579 5575 5570 5567 5565 5563 5561 5559 5561 5563 5570 5567 5567 5589 5593 5590 5560 5537 5535 5545 5548 5545 5529 5520 5515 5521 5523 5540 5550 5559 5575 5574 5575 5572 5577 5604 5689 5721 5732 5751 5745 5750 5749 5746 5718 5704
5577 5572 5568 5563 5559 5557 5554 5552 5550 5551 5552 5556 5545 5546 5577 5579 5553 5532 5526 5529 5533 5530 5530 5523 5518 5513 5511 5513 5524 5534 5540 5546 5562 5558 5554 5568 5588 5613 5690 5752 5756 5766 5746 5747 5734 5714 5724
5569 5566 5560 5558 5555 5552 5549 5545 5540 5540 5539 5536 5530 5533 5562 5557 5514 5503 5516 5519 5520 5513 5513 5510 5505 5505 5505 5504 5504 5510 5520 5531 5539 5547 5540 5542 5573 5597 5679 5710 5733 5732 5753 5759 5750 5747 5729
5564 5560 5555 5552 5549 5544 5542 5538 5534 5532 5532 5528 5520 5517 5523 5523 5508 5498 5491 5505 5505 5510 5510 5506 5502 5499 5499 5492 5493 5494 5504 5514 5525 5526 5532 5519 5532 5573 5611 5656 5677 5713 5744 5758 5753 5734 5749
5559 5555 5551 5547 5543 5539 5536 5532 5529 5527 5526 5520 5513 5506 5499 5488 5496 5479 5481 5492 5499 5494 5493 5491 5492 5488 5484 5475 5480 5485 5492 5495 5510 5509 5513 5506 5528 5569 5602 5644 5670 5699 5730 5757 5749 5769 5753
5555 5551 5548 5545 5542 5536 5531 5527 5525 5524 5522 5513 5505 5499 5488 5490 5479 5477 5482 5486 5484 5480 5476 5479 5470 5472 5474 5463 5470 5471 5478 5478 5492 5496 5497 5504 5529 5566 5621 5681 5701 5716 5746 5756 5765 5774 5772
5552 5549 5547 5544 5540 5534 5528 5524 5522 5519 5515 5505 5504 5496 5486 5487 5480 5467 5476 5471 5469 5476 5469 5471 5464 5461 5466 5469 5472 5474 5479 5485 5493 5501 5499 5508 5531 5555 5611 5669 5708 5708 5715 5751 5772 5781 5783
5547 5545 5544 5542 5537 5533 5529 5524 5521 5518 5512 5503 5497 5492 5482 5484 5476 5470 5463 5459 5462 5461 5457 5464 5465 5455 5468 5473 5473 5478 5483 5490 5511 5521 5518 5525 5522 5555 5605 5649 5668 5695 5715 5728 5732 5738 5746
5547 5543 5542 5540 5536 5534 5531 5527 5523 5518 5512 5504 5498 5489 5481 5477 5474 5471 5466 5464 5456 5453 5454 5460 5466 5465 5465 5460 5456 5459 5482 5499 5515 5521 5526 5533 5542 5555 5596 5637 5688 5693 5688 5695 5696 5695 5722
5545 5542 5539 5537 5536 5535 5532 5528 5524 5519 5514 5507 5502 5494 5481 5474 5476 5470 5466 5458 5454 5454 5456 5464 5465 5463 5465 5459 5462 5462 5482 5481 5518 5529 5535 5534 5540 5560 5591 5620 5631 5627 5670 5710 5719 5676 5705
5543 5539 5537 5535 5535 5535 5532 5528 5524 5519 5515 5510 5506 5498 5485 5477 5477 5468 5466 5457 5454 5452 5446 5450 5450 5456 5463 5453 5459 5468 5490 5499 5512 5513 5528 5520 5536 5563 5594 5612 5612 5621 5648 5692 5656 5647 5684
5542 5539 5537 5536 5536 5536 5532 5529 5526 5523 5519 5513 5510 5502 5492 5482 5481 5478 5471 5465 5461 5453 5451 5452 5448 5448 5452 5442 5455 5459 5473 5489 5497 5504 5512 5518 5539 5548 5571 5594 5587 5608 5628 5619 5618 5651 5670
5547 5546 5544 5541 5540 5538 5535 5533 5530 5527 5522 5518 5512 5508 5499 5487 5487 5481 5479 5472 5466 5461 5454 5455 5448 5451 5453 5440 5438 5456 5465 5482 5500 5504 5514 5506 5509 5519 5542 5568 5586 5601 5602 5614 5625 5639 5651